Time,TemperatureF,DewpointF,PressureIn,WindDirection,WindDirectionDegrees,WindSpeedMPH,WindSpeedGustMPH,Humidity,HourlyPrecipIn,Conditions,Clouds,dailyrainin,SoftwareType,DateUTC
2013-02-04 00:01:00,35.2,26.0,30.16,SE,133,3.0,-999.0,69,-99.99,,,0.00,weatherlink.com 1.10,2013-02-04 08:01:00,
2013-02-04 00:16:00,35.9,26.0,30.15,ESE,103,3.0,-999.0,68,-99.99,,,0.00,weatherlink.com 1.10,2013-02-04 08:16:00,
2013-02-04 00:31:00,36.5,26.0,30.15,ESE,110,3.0,-999.0,67,-99.99,,,0.00,weatherlink.com 1.10,2013-02-04 08:31:00,
2013-02-04 00:46:00,36.8,26.0,30.15,ESE,113,0.0,-999.0,66,-99.99,,,0.00,weatherlink.com 1.10,2013-02-04 08:46:00,
2013-02-04 01:01:00,36.5,27.0,30.15,SE,127,2.0,-999.0,68,-99.99,,,0.00,weatherlink.com 1.10,2013-02-04 09:01:00,
2013-02-04 01:16:00,35.9,26.0,30.15,ENE,68,0.0,-999.0,68,-99.99,,,0.00,weatherlink.com 1.10,2013-02-04 09:16:00,
2013-02-04 01:31:00,35.1,27.0,30.15,ESE,122,2.0,-999.0,71,-99.99,,,0.00,weatherlink.com 1.10,2013-02-04 09:31:00,
2013-02-04 01:46:00,35.1,27.0,30.16,ENE,77,1.0,-999.0,71,-99.99,,,0.00,weatherlink.com 1.10,2013-02-04 09:46:00,
2013-02-04 02:01:00,34.4,26.0,30.15,ESE,114,4.0,-999.0,70,-99.99,,,0.00,weatherlink.com 1.10,2013-02-04 10:01:00,
2013-02-04 02:16:00,34.1,26.0,30.14,ESE,102,1.0,-999.0,71,-99.99,,,0.00,weatherlink.com 1.10,2013-02-04 10:16:00,
2013-02-04 02:31:00,32.7,26.0,30.14,ESE,120,2.0,-999.0,75,-99.99,,,0.00,weatherlink.com 1.10,2013-02-04 10:31:00,
2013-02-04 02:46:00,32.1,25.0,30.14,SE,143,1.0,-999.0,76,-99.99,,,0.00,weatherlink.com 1.10,2013-02-04 10:46:00,
2013-02-04 03:01:00,32.7,25.0,30.14,ESE,107,3.0,-999.0,74,-99.99,,,0.00,weatherlink.com 1.10,2013-02-04 11:01:00,
2013-02-04 03:16:00,32.9,25.0,30.14,SE,139,2.0,-999.0,74,-99.99,,,0.00,weatherlink.com 1.10,2013-02-04 11:16:00,
2013-02-04 03:31:00,33.4,26.0,30.14,ESE,120,0.0,-999.0,73,-99.99,,,0.00,weatherlink.com 1.10,2013-02-04 11:31:00,
2013-02-04 03:46:00,33.2,25.0,30.13,East,93,3.0,-999.0,73,-99.99,,,0.00,weatherlink.com 1.10,2013-02-04 11:46:00,
2013-02-04 04:01:00,33.3,26.0,30.13,East,101,3.0,-999.0,73,-99.99,,,0.00,weatherlink.com 1.10,2013-02-04 12:01:00,
2013-02-04 04:16:00,32.9,26.0,30.13,East,101,3.0,-999.0,75,-99.99,,,0.00,weatherlink.com 1.10,2013-02-04 12:16:00,
2013-02-04 04:31:00,33.7,26.0,30.12,SE,142,2.0,-999.0,72,-99.99,,,0.00,weatherlink.com 1.10,2013-02-04 12:31:00,
2013-02-04 04:46:00,34.9,25.0,30.12,SE,127,2.0,-999.0,68,-99.99,,,0.00,weatherlink.com 1.10,2013-02-04 12:46:00,
2013-02-04 05:01:00,34.0,24.0,30.12,SSE,147,2.0,-999.0,68,-99.99,,,0.00,weatherlink.com 1.10,2013-02-04 13:01:00,
2013-02-04 05:16:00,34.0,24.0,30.11,ESE,109,0.0,-999.0,68,-99.99,,,0.00,weatherlink.com 1.10,2013-02-04 13:16:00,
2013-02-04 05:31:00,33.6,24.0,30.12,East,80,3.0,-999.0,68,-99.99,,,0.00,weatherlink.com 1.10,2013-02-04 13:31:00,
2013-02-04 05:46:00,33.4,24.0,30.12,East,96,3.0,-999.0,68,-99.99,,,0.00,weatherlink.com 1.10,2013-02-04 13:46:00,
2013-02-04 06:01:00,32.9,24.0,30.12,SE,143,4.0,-999.0,71,-99.99,,,0.00,weatherlink.com 1.10,2013-02-04 14:01:00,
2013-02-04 06:16:00,33.4,26.0,30.12,SE,136,1.0,-999.0,73,-99.99,,,0.00,weatherlink.com 1.10,2013-02-04 14:16:00,
2013-02-04 06:31:00,34.5,26.0,30.13,WSW,257,0.0,-999.0,71,-99.99,,,0.00,weatherlink.com 1.10,2013-02-04 14:31:00,
2013-02-04 06:46:00,35.3,25.0,30.12,SE,133,3.0,-999.0,66,-99.99,,,0.00,weatherlink.com 1.10,2013-02-04 14:46:00,
2013-02-04 07:01:00,36.8,26.0,30.12,ESE,112,2.0,-999.0,65,-99.99,,,0.00,weatherlink.com 1.10,2013-02-04 15:01:00,
2013-02-04 07:16:00,36.1,26.0,30.12,ENE,68,0.0,-999.0,66,-99.99,,,0.00,weatherlink.com 1.10,2013-02-04 15:16:00,
2013-02-04 07:31:00,37.1,25.0,30.12,East,98,3.0,-999.0,62,-99.99,,,0.00,weatherlink.com 1.10,2013-02-04 15:31:00,
2013-02-04 07:46:00,36.7,25.0,30.12,SSE,150,1.0,-999.0,64,-99.99,,,0.00,weatherlink.com 1.10,2013-02-04 15:46:00,
2013-02-04 08:01:00,38.0,26.0,30.12,SSE,167,0.0,-999.0,63,-99.99,,,0.00,weatherlink.com 1.10,2013-02-04 16:01:00,
2013-02-04 08:16:00,38.5,27.0,30.13,ESE,112,1.0,-999.0,63,-99.99,,,0.00,weatherlink.com 1.10,2013-02-04 16:16:00,
2013-02-04 08:31:00,39.6,26.0,30.13,SSE,148,1.0,-999.0,58,-99.99,,,0.00,weatherlink.com 1.10,2013-02-04 16:31:00,
2013-02-04 08:46:00,41.2,26.0,30.12,SSE,160,5.0,-999.0,55,-99.99,,,0.00,weatherlink.com 1.10,2013-02-04 16:46:00,
2013-02-04 09:01:00,43.4,26.0,30.12,ESE,113,2.0,-999.0,50,-99.99,,,0.00,weatherlink.com 1.10,2013-02-04 17:01:00,
2013-02-04 09:16:00,43.1,25.0,30.12,NNE,26,0.0,-999.0,50,-99.99,,,0.00,weatherlink.com 1.10,2013-02-04 17:16:00,
2013-02-04 09:31:00,44.9,25.0,30.12,SSE,150,3.0,-999.0,46,-99.99,,,0.00,weatherlink.com 1.10,2013-02-04 17:31:00,
2013-02-04 09:46:00,45.3,24.0,30.12,SSE,150,4.0,-999.0,44,-99.99,,,0.00,weatherlink.com 1.10,2013-02-04 17:46:00,
2013-02-04 10:01:00,45.8,25.0,30.12,SSE,162,2.0,-999.0,45,-99.99,,,0.00,weatherlink.com 1.10,2013-02-04 18:01:00,
2013-02-04 10:16:00,45.7,25.0,30.12,SE,139,6.0,-999.0,44,-99.99,,,0.00,weatherlink.com 1.10,2013-02-04 18:16:00,
2013-02-04 10:31:00,46.1,26.0,30.12,SSE,162,7.0,-999.0,45,-99.99,,,0.00,weatherlink.com 1.10,2013-02-04 18:31:00,
2013-02-04 10:46:00,46.5,25.0,30.12,South,171,4.0,-999.0,43,-99.99,,,0.00,weatherlink.com 1.10,2013-02-04 18:46:00,
2013-02-04 11:01:00,46.3,26.0,30.11,SSE,163,9.0,-999.0,46,-99.99,,,0.00,weatherlink.com 1.10,2013-02-04 19:01:00,
2013-02-04 11:16:00,46.8,25.0,30.11,SSE,153,7.0,-999.0,43,-99.99,,,0.00,weatherlink.com 1.10,2013-02-04 19:16:00,
2013-02-04 11:31:00,47.3,24.0,30.11,SSE,150,7.0,-999.0,41,-99.99,,,0.00,weatherlink.com 1.10,2013-02-04 19:31:00,
2013-02-04 11:46:00,47.6,26.0,30.10,SSE,161,5.0,-999.0,44,-99.99,,,0.00,weatherlink.com 1.10,2013-02-04 19:46:00,
2013-02-04 12:01:00,47.7,25.0,30.10,South,169,5.0,-999.0,41,-99.99,,,0.00,weatherlink.com 1.10,2013-02-04 20:01:00,
2013-02-04 12:16:00,47.9,24.0,30.09,SSE,148,2.0,-999.0,39,-99.99,,,0.00,weatherlink.com 1.10,2013-02-04 20:16:00,
2013-02-04 12:31:00,47.7,24.0,30.08,SE,141,6.0,-999.0,40,-99.99,,,0.00,weatherlink.com 1.10,2013-02-04 20:31:00,
2013-02-04 12:46:00,48.0,23.0,30.07,SE,134,9.0,-999.0,37,-99.99,,,0.00,weatherlink.com 1.10,2013-02-04 20:46:00,
2013-02-04 13:01:00,48.5,22.0,30.06,SE,142,7.0,-999.0,36,-99.99,,,0.00,weatherlink.com 1.10,2013-02-04 21:01:00,
2013-02-04 13:16:00,48.7,23.0,30.05,SE,129,5.0,-999.0,36,-99.99,,,0.00,weatherlink.com 1.10,2013-02-04 21:16:00,
2013-02-04 13:31:00,49.1,22.0,30.04,SE,129,5.0,-999.0,35,-99.99,,,0.00,weatherlink.com 1.10,2013-02-04 21:31:00,
2013-02-04 13:46:00,49.3,21.0,30.04,SSE,154,8.0,-999.0,33,-99.99,,,0.00,weatherlink.com 1.10,2013-02-04 21:46:00,
2013-02-04 14:01:00,49.6,20.0,30.04,South,181,7.0,-999.0,31,-99.99,,,0.00,weatherlink.com 1.10,2013-02-04 22:01:00,
2013-02-04 14:16:00,49.9,19.0,30.04,SE,141,5.0,-999.0,30,-99.99,,,0.00,weatherlink.com 1.10,2013-02-04 22:16:00,
2013-02-04 14:31:00,51.1,19.0,30.04,SSE,163,5.0,-999.0,28,-99.99,,,0.00,weatherlink.com 1.10,2013-02-04 22:31:00,
2013-02-04 14:46:00,51.5,18.0,30.03,South,174,3.0,-999.0,27,-99.99,,,0.00,weatherlink.com 1.10,2013-02-04 22:46:00,
2013-02-04 15:01:00,50.3,21.0,30.03,SE,138,3.0,-999.0,31,-99.99,,,0.00,weatherlink.com 1.10,2013-02-04 23:01:00,
2013-02-04 15:16:00,50.2,20.0,30.03,SSE,149,2.0,-999.0,31,-99.99,,,0.00,weatherlink.com 1.10,2013-02-04 23:16:00,
2013-02-04 15:31:00,49.9,20.0,30.03,South,181,2.0,-999.0,31,-99.99,,,0.00,weatherlink.com 1.10,2013-02-04 23:31:00,
2013-02-04 15:46:00,49.9,22.0,30.03,SSE,163,2.0,-999.0,33,-99.99,,,0.00,weatherlink.com 1.10,2013-02-04 23:46:00,
2013-02-04 16:01:00,49.0,23.0,30.02,SSE,153,1.0,-999.0,36,-99.99,,,0.00,weatherlink.com 1.10,2013-02-05 00:01:00,
2013-02-04 16:16:00,48.0,23.0,30.01,SE,145,2.0,-999.0,37,-99.99,,,0.00,weatherlink.com 1.10,2013-02-05 00:16:00,
2013-02-04 16:31:00,47.5,23.0,30.01,ESE,117,0.0,-999.0,39,-99.99,,,0.00,weatherlink.com 1.10,2013-02-05 00:31:00,
2013-02-04 16:46:00,45.8,24.0,30.01,SE,146,0.0,-999.0,43,-99.99,,,0.00,weatherlink.com 1.10,2013-02-05 00:46:00,
2013-02-04 17:01:00,43.9,27.0,30.01,SSE,149,2.0,-999.0,51,-99.99,,,0.00,weatherlink.com 1.10,2013-02-05 01:01:00,
2013-02-04 17:16:00,42.9,27.0,30.01,SSE,153,2.0,-999.0,53,-99.99,,,0.00,weatherlink.com 1.10,2013-02-05 01:16:00,
2013-02-04 17:31:00,42.6,26.0,30.02,SSE,160,2.0,-999.0,53,-99.99,,,0.00,weatherlink.com 1.10,2013-02-05 01:31:00,
2013-02-04 17:46:00,41.4,27.0,30.01,SSE,155,2.0,-999.0,57,-99.99,,,0.00,weatherlink.com 1.10,2013-02-05 01:46:00,
2013-02-04 18:01:00,41.2,27.0,30.01,SE,132,2.0,-999.0,57,-99.99,,,0.00,weatherlink.com 1.10,2013-02-05 02:01:00,
2013-02-04 18:16:00,40.5,27.0,30.00,SE,134,0.0,-999.0,58,-99.99,,,0.00,weatherlink.com 1.10,2013-02-05 02:16:00,
2013-02-04 18:31:00,41.0,25.0,30.01,ESE,104,0.0,-999.0,53,-99.99,,,0.00,weatherlink.com 1.10,2013-02-05 02:31:00,
2013-02-04 18:46:00,40.9,25.0,30.00,SE,136,2.0,-999.0,54,-99.99,,,0.00,weatherlink.com 1.10,2013-02-05 02:46:00,
2013-02-04 19:01:00,41.0,25.0,30.00,SSE,152,2.0,-999.0,53,-99.99,,,0.00,weatherlink.com 1.10,2013-02-05 03:01:00,
2013-02-04 19:16:00,41.1,24.0,29.99,ENE,77,2.0,-999.0,52,-99.99,,,0.00,weatherlink.com 1.10,2013-02-05 03:16:00,
2013-02-04 19:31:00,41.9,24.0,29.99,SE,124,0.0,-999.0,49,-99.99,,,0.00,weatherlink.com 1.10,2013-02-05 03:31:00,
2013-02-04 19:46:00,41.7,24.0,29.98,SE,136,0.0,-999.0,49,-99.99,,,0.00,weatherlink.com 1.10,2013-02-05 03:46:00,
2013-02-04 20:01:00,41.6,25.0,29.98,ESE,104,0.0,-999.0,51,-99.99,,,0.00,weatherlink.com 1.10,2013-02-05 04:01:00,
2013-02-04 20:16:00,41.6,24.0,29.97,SSE,162,3.0,-999.0,50,-99.99,,,0.00,weatherlink.com 1.10,2013-02-05 04:16:00,
2013-02-04 20:31:00,41.1,24.0,29.97,SSW,207,0.0,-999.0,52,-99.99,,,0.00,weatherlink.com 1.10,2013-02-05 04:31:00,
2013-02-04 20:46:00,39.1,24.0,29.97,SSW,207,0.0,-999.0,55,-99.99,,,0.00,weatherlink.com 1.10,2013-02-05 04:46:00,
2013-02-04 21:01:00,40.7,25.0,29.96,ESE,110,0.0,-999.0,54,-99.99,,,0.00,weatherlink.com 1.10,2013-02-05 05:01:00,
2013-02-04 21:16:00,40.7,25.0,29.96,SE,137,4.0,-999.0,55,-99.99,,,0.00,weatherlink.com 1.10,2013-02-05 05:16:00,
2013-02-04 21:31:00,41.4,26.0,29.95,SSE,158,7.0,-999.0,54,-99.99,,,0.00,weatherlink.com 1.10,2013-02-05 05:31:00,
2013-02-04 21:46:00,41.8,26.0,29.95,SE,146,9.0,-999.0,53,-99.99,,,0.00,weatherlink.com 1.10,2013-02-05 05:46:00,
2013-02-04 22:01:00,42.0,26.0,29.95,SSE,157,10.0,-999.0,53,-99.99,,,0.00,weatherlink.com 1.10,2013-02-05 06:01:00,
2013-02-04 22:16:00,41.5,26.0,29.94,SE,139,10.0,-999.0,55,-99.99,,,0.00,weatherlink.com 1.10,2013-02-05 06:16:00,
2013-02-04 22:31:00,42.4,26.0,29.93,ESE,122,11.0,-999.0,53,-99.99,,,0.00,weatherlink.com 1.10,2013-02-05 06:31:00,
2013-02-04 22:46:00,42.8,26.0,29.94,SSE,150,7.0,-999.0,52,-99.99,,,0.00,weatherlink.com 1.10,2013-02-05 06:46:00,
2013-02-04 23:01:00,42.8,26.0,29.93,SE,136,7.0,-999.0,52,-99.99,,,0.00,weatherlink.com 1.10,2013-02-05 07:01:00,
2013-02-04 23:16:00,44.1,25.0,29.93,SE,138,7.0,-999.0,47,-99.99,,,0.00,weatherlink.com 1.10,2013-02-05 07:16:00,
2013-02-04 23:31:00,43.3,25.0,29.93,SSE,159,7.0,-999.0,49,-99.99,,,0.00,weatherlink.com 1.10,2013-02-05 07:31:00,
2013-02-04 23:46:00,42.9,26.0,29.93,SSE,149,7.0,-999.0,51,-99.99,,,0.00,weatherlink.com 1.10,2013-02-05 07:46:00,